CAPE
0 0 0 0 0 0 0 0 0 0 0 0 0 0 0 0 0 0 12 170 99 16 0 0 0 0 56 72 58 29 27 9 0 1 6 2 4 3 0 6 5 8 10 3 0 3 3 2 0
0 0 0 0 0 0 0 0 0 0 0 0 0 0 0 0 0 0 60 108 38 0 0 0 0 0 0 42 17 23 24 21 3 3 10 1 3 8 2 7 2 5 7 38 15 0 0 0 0
0 0 0 0 0 0 0 0 0 0 0 0 0 0 0 0 0 0 46 28 13 4 0 0 0 0 0 4 0 0 0 0 0 0 1 0 4 2 0 1 4 3 2 11 27 0 0 0 0
0 0 0 0 0 0 0 0 0 0 0 0 0 0 0 0 0 8 43 12 2 0 0 0 0 0 0 0 0 0 0 6 2 0 0 0 1 1 0 0 2 3 6 0 0 0 0 0 0
0 0 0 0 0 0 0 0 0 0 0 0 0 0 0 0 0 17 84 28 0 2 0 0 0 0 0 0 0 0 0 7 7 6 0 0 0 0 0 0 1 4 2 1 3 5 0 0 0
0 0 0 0 0 0 0 0 0 0 0 0 0 0 0 0 0 1 96 23 4 2 1 0 0 0 0 0 0 0 0 1 3 1 5 0 0 1 2 0 0 0 3 3 2 1 0 0 0
0 0 0 8 0 0 0 0 0 0 0 0 0 0 0 0 0 0 37 52 4 1 1 0 0 0 0 0 0 0 0 0 7 0 0 0 0 0 0 5 2 0 0 2 1 4 0 0 0
0 0 0 1 0 0 0 0 0 0 0 0 0 0 0 0 0 0 0 17 53 1 1 2 0 0 0 0 0 0 0 0 0 0 0 4 1 0 0 0 0 1 1 2 1 2 0 0 0
0 0 0 0 0 0 0 0 0 0 0 0 0 0 0 0 0 0 0 0 0 11 2 4 3 1 0 0 0 0 0 0 0 0 0 1 0 0 0 0 0 0 0 0 1 1 2 0 0
0 0 0 0 6 0 0 0 0 0 0 0 0 0 0 0 0 0 0 0 0 0 0 0 1 0 0 0 0 0 0 0 0 0 0 0 0 0 0 0 0 0 0 0 0 0 0 0 0
0 0 0 0 0 0 0 0 0 0 0 0 0 0 0 0 0 0 0 0 0 0 1 1 0 1 0 0 0 0 0 0 0 0 0 0 0 0 0 0 0 0 0 0 0 0 0 0 0
0 0 0 0 0 0 0 0 0 0 0 0 0 0 0 0 0 0 0 0 0 0 0 0 0 1 0 0 0 0 0 0 0 0 0 0 0 0 0 0 0 0 0 0 0 0 0 0 0
0 0 0 0 0 0 0 0 0 0 0 0 0 0 0 0 0 0 0 0 0 0 0 0 0 0 0 0 0 0 0 0 0 0 0 0 0 0 0 0 0 0 0 0 0 0 0 0 0
0 0 0 0 0 0 0 0 0 0 0 0 0 0 0 0 0 0 0 0 0 0 0 0 0 0 0 0 0 0 0 0 0 0 0 0 0 0 0 0 0 0 0 0 0 0 0 0 0
0 0 0 0 0 0 0 0 0 0 0 0 0 0 0 0 0 0 0 0 0 0 0 0 0 0 0 0 0 0 0 0 0 0 0 0 0 0 0 0 0 0 0 0 0 0 0 0 0
0 0 0 0 0 0 0 0 0 0 0 0 0 0 0 0 0 0 0 0 0 0 0 0 0 0 0 0 0 0 0 0 0 0 0 0 0 0 0 0 0 0 0 0 0 0 0 0 0
0 0 0 0 0 0 0 0 0 0 0 0 0 0 0 0 0 0 0 0 0 0 0 0 0 0 0 0 0 0 0 0 0 0 0 0 0 0 0 0 0 0 0 0 0 0 0 0 0
0 0 0 0 0 0 0 0 0 0 0 0 0 0 0 0 0 0 0 0 0 0 0 0 0 0 0 0 0 0 0 0 0 0 0 0 0 0 0 0 0 1 4 0 0 0 0 0 0
0 0 0 0 0 0 0 0 0 0 0 0 0 0 0 0 0 0 0 0 0 0 0 0 0 0 0 0 0 0 0 0 0 0 0 0 0 2 0 0 2 3 0 0 0 1 0 0 1
0 0 0 0 0 0 0 0 0 0 0 0 0 0 0 0 0 0 0 0 0 0 0 0 0 0 0 0 0 0 0 0 0 0 0 0 0 0 3 2 0 0 1 0 1 1 0 1 1
0 0 0 0 0 0 0 0 0 0 0 0 0 0 0 0 0 0 0 0 0 0 0 0 0 0 0 0 0 0 0 0 0 0 0 0 0 0 0 0 0 0 1 0 0 1 2 3 0
0 0 0 0 0 0 0 0 0 0 0 0 0 0 0 0 0 0 0 0 0 0 0 0 0 0 0 0 0 0 0 0 0 0 0 0 0 0 0 8 8 0 2 1 1 1 2 4 2
0 0 0 0 0 0 0 0 0 0 0 0 0 0 0 0 0 0 0 0 0 0 0 0 0 0 0 0 0 0 0 0 0 0 0 0 0 11 12 9 8 0 1 1 1 2 2 3 5
0 0 0 0 0 0 0 0 0 0 0 0 0 0 0 0 0 0 0 0 0 0 0 0 0 0 0 0 0 0 0 0 0 0 0 0 0 0 0 2 2 0 2 4 4 6 4 5 7
0 0 0 0 0 0 0 0 0 0 0 0 0 0 0 0 0 0 0 0 0 0 0 0 0 0 0 0 0 0 0 0 0 0 0 0 0 0 0 0 0 0 0 0 1 3 6 7 8
0 0 0 0 0 0 0 0 0 0 0 0 0 0 0 0 0 0 0 0 0 0 0 0 0 0 0 0 0 0 0 0 0 0 0 0 0 0 0 0 0 0 0 0 0 0 0 3 2
0 0 0 0 0 0 0 0 0 0 0 0 0 0 0 0 0 0 0 0 0 0 0 0 0 0 0 0 0 0 0 0 0 0 0 0 0 0 0 0 0 0 0 0 0 0 0 0 0
0 0 0 0 0 0 0 0 0 0 0 0 0 0 0 0 0 0 0 0 0 0 0 0 0 0 0 0 0 0 0 0 0 0 0 0 0 0 0 0 0 0 0 0 0 0 0 0 0
0 0 0 0 0 0 0 0 0 0 0 0 0 0 0 0 0 0 0 0 0 0 0 0 0 0 0 0 0 0 0 0 0 0 0 0 0 0 0 0 0 0 0 0 0 0 0 0 0
0 0 0 0 0 0 0 0 0 0 0 0 0 0 0 0 0 0 0 0 0 0 0 0 0 0 0 0 0 0 0 0 0 0 0 0 0 0 0 0 0 0 0 0 0 0 0 0 0
CIN
0 0 0 0 0 0 0 0 0 0 0 0 0 0 0 0 0 0 -20 -94 -97 -150 0 0 0 0 -106 -122 -162 -4 -1 0 0 0 0 0 0 0 0 -1 0 0 -1 0 0 0 0 0 0
0 0 0 0 0 0 0 0 0 0 0 0 0 0 0 0 0 -41 -121 -107 -147 0 0 0 0 0 0 -133 -3 -2 -3 -1 0 0 0 0 0 0 0 -1 0 0 -2 -2 -2 0 0 0 0
0 0 0 0 0 0 0 0 0 0 0 0 0 0 0 0 0 0 -96 -166 -194 -2 0 0 0 0 0 -54 0 0 0 0 0 0 0 0 0 0 0 -1 0 0 0 -1 0 0 0 0 0
0 0 0 0 0 0 0 0 0 0 0 0 0 0 0 0 0 -273 -123 -217 -1 0 0 0 0 0 0 0 0 0 0 -14 -10 0 0 0 -1 0 0 0 -1 0 -1 0 0 0 0 0 0
0 0 0 0 0 0 0 0 0 0 0 0 0 0 0 0 0 -233 -114 -193 0 -1 0 0 0 0 0 0 0 0 0 -10 -12 -9 -2 0 0 0 0 0 -1 0 -1 0 0 -2 0 0 0
0 0 0 -1 0 0 0 0 0 0 0 0 0 0 0 0 0 -48 -87 -198 -148 -3 -6 0 0 0 0 0 0 0 0 -1 -11 -2 -11 0 0 -4 -1 -2 0 -1 -3 -1 0 -2 0 0 0
0 0 0 -1 0 0 0 0 0 0 0 0 0 0 0 0 0 0 -167 -157 -173 -2 -1 0 0 0 0 0 0 0 0 0 -3 -3 0 0 0 0 -1 -1 -3 -1 0 -1 0 0 0 0 0
0 0 0 -2 0 0 0 0 0 0 0 0 0 0 0 0 0 0 0 -205 -159 -157 -4 -1 0 0 0 0 0 0 0 0 0 0 0 -4 -3 0 0 0 0 -5 -4 0 0 0 0 0 0
0 0 0 0 0 0 0 0 0 0 0 0 0 0 0 0 0 0 0 0 0 -160 -1 -5 -1 -2 0 0 0 0 0 0 0 0 0 -3 0 0 0 0 0 0 0 0 -3 0 -4 0 0
0 0 0 0 -4 0 0 0 0 0 0 0 0 0 0 0 0 0 0 0 0 0 0 -2 -1 0 0 0 0 0 0 0 0 0 0 0 0 0 0 0 0 0 0 0 0 -2 0 0 0
0 0 0 0 0 0 0 0 0 0 0 0 0 0 0 0 0 0 0 0 0 0 0 -1 -1 -1 -1 0 0 0 0 0 0 0 0 0 0 0 0 0 0 0 0 0 0 0 0 0 0
0 0 0 0 0 0 0 0 0 0 0 0 0 0 0 0 0 0 0 0 0 0 0 0 0 -2 0 0 0 0 0 0 0 0 0 0 0 0 0 0 0 0 0 0 0 0 0 0 0
0 0 0 0 0 0 0 0 0 0 0 0 0 0 0 0 0 0 0 0 0 0 0 0 0 0 0 0 0 0 0 0 0 0 0 0 0 0 0 0 0 0 0 0 0 0 0 0 0
0 0 0 0 0 0 0 0 0 0 0 0 0 0 0 0 0 0 0 0 0 0 0 0 0 0 0 0 0 0 0 0 0 0 0 0 0 0 0 0 0 0 0 0 0 0 0 0 0
0 0 0 0 0 0 0 0 0 0 0 0 0 0 0 0 0 0 0 0 0 0 0 0 0 0 0 0 0 0 0 0 0 0 0 0 0 0 0 0 0 0 0 0 0 0 0 0 0
0 0 0 0 0 0 0 0 0 0 0 0 0 0 0 0 0 0 0 0 0 0 0 0 0 0 0 0 0 0 0 0 0 0 0 0 0 0 0 0 0 0 0 0 0 0 0 0 0
0 0 0 0 0 0 0 0 0 0 0 0 0 0 0 0 0 0 0 0 0 0 0 0 0 0 0 0 0 0 0 0 0 0 0 0 0 0 0 0 0 0 0 0 0 0 0 0 0
0 0 0 0 0 0 0 0 0 0 0 0 0 0 0 0 0 0 0 0 0 0 0 0 0 0 0 0 0 0 0 0 0 0 0 0 0 0 0 0 0 -1 -2 0 0 0 0 0 -1
0 0 0 0 0 0 0 0 0 0 0 0 0 0 0 0 0 0 0 0 0 0 0 0 0 0 0 0 0 0 0 0 0 0 0 0 -2 -3 0 0 -4 -3 -2 0 0 -2 -3 -3 -4
0 0 0 0 0 0 0 0 0 0 0 0 0 0 0 0 0 0 0 0 0 0 0 0 0 0 0 0 0 0 0 0 0 0 0 0 0 -5 -3 -3 0 0 -4 -3 -3 -3 -2 -6 -7
0 0 0 0 0 0 0 0 0 0 0 0 0 0 0 0 0 0 0 0 0 0 0 0 0 0 0 0 0 0 0 0 0 0 0 0 0 0 0 -4 0 0 -4 -4 -3 -5 -3 0 -1
0 0 0 0 0 0 0 0 0 0 0 0 0 0 0 0 0 0 0 0 0 0 0 0 0 0 0 0 0 0 0 0 0 0 0 0 0 0 0 -100 -88 -1 -2 -2 -3 -4 -2 -1 0
0 0 0 0 0 0 0 0 0 0 0 0 0 0 0 0 0 0 0 0 0 0 0 0 0 0 0 0 0 0 0 0 0 0 0 0 0 -71 -78 -83 -79 0 -5 -4 -4 -4 -2 -2 0
0 0 0 0 0 0 0 0 0 0 0 0 0 0 0 0 0 0 0 0 0 0 0 0 0 0 0 0 0 0 0 0 0 0 0 0 0 0 -1 -2 -1 -1 -5 -4 -5 -5 -5 -6 -2
0 0 0 0 0 0 0 0 0 0 0 0 0 0 0 0 0 0 0 0 0 0 0 0 0 0 0 0 0 0 0 0 0 0 0 0 0 0 0 0 0 0 0 -1 -1 -4 -6 -7 -3
0 0 0 0 0 0 0 0 0 0 0 0 0 0 0 0 0 0 0 0 0 0 0 0 0 0 0 0 0 0 0 0 0 0 0 0 0 0 0 0 0 0 0 0 0 -1 -1 -3 -2
0 0 0 0 0 0 0 0 0 0 0 0 0 0 0 0 0 0 0 0 0 0 0 0 0 0 0 0 0 0 0 0 0 0 0 0 0 0 0 0 0 0 0 0 0 0 0 0 0
0 0 0 0 0 0 0 0 0 0 0 0 0 0 0 0 0 0 0 0 0 0 0 0 0 0 0 0 0 0 0 0 0 0 0 0 0 0 0 0 0 0 0 0 0 0 0 0 0
0 -2 0 0 0 0 0 0 0 0 0 0 0 0 0 0 0 0 0 0 0 0 0 0 0 0 0 0 0 0 0 0 0 0 0 0 0 0 0 0 0 0 0 0 0 0 0 0 0
0 0 0 0 0 0 0 0 0 0 0 0 0 0 0 0 0 0 0 0 0 0 0 0 0 0 0 0 0 0 0 0 0 0 0 0 0 0 0 0 0 0 0 0 0 0 0 0 0
Wind_Speed
19 16 15 16 15 16 12 15 11 15 18 14 12 13 9 9 14 20 20 3 4 4 12 15 16 17 12 12 4 5 7 8 13 17 20 21 22 23 23 24 24 24 25 24 25 25 25 25 25
20 17 16 16 16 18 11 11 16 11 10 11 14 16 14 13 11 13 16 6 3 6 12 11 13 14 10 6 3 6 8 10 12 15 17 18 19 20 20 21 22 22 22 23 23 24 24 23 23
22 19 17 17 17 12 10 12 6 9 12 16 15 14 13 12 8 16 6 4 4 8 12 3 9 9 9 7 7 7 8 11 12 13 14 15 16 17 18 18 19 20 21 21 21 22 22 22 22
21 18 19 17 13 13 8 6 6 8 13 14 16 11 11 12 11 9 4 3 1 4 1 4 2 3 3 4 5 7 9 11 14 15 15 15 15 16 16 16 17 18 18 20 19 20 20 21 21
21 20 21 19 14 13 11 7 6 11 11 10 16 11 10 12 6 4 5 5 1 5 3 3 3 4 6 5 6 7 8 10 12 13 14 13 13 14 14 14 14 16 16 17 18 19 19 18 19
21 19 22 21 13 14 12 10 7 9 9 10 12 7 10 6 3 2 5 3 5 3 4 4 6 6 5 5 5 6 9 8 9 10 11 12 12 12 12 12 13 13 14 14 15 16 16 17 16
24 24 26 22 12 14 13 14 12 9 9 10 12 11 9 5 3 2 1 6 4 3 4 4 4 5 5 5 5 5 7 9 8 9 10 10 10 10 10 10 11 11 12 12 12 13 14 14 14
22 22 25 21 14 16 10 11 15 14 11 11 14 13 10 3 3 3 2 2 3 3 3 4 4 5 5 5 5 5 6 7 8 7 8 8 9 9 10 10 9 9 9 10 9 10 12 11 11
21 23 25 24 21 15 9 12 13 15 11 12 13 11 6 5 4 5 5 4 3 5 2 4 6 4 5 5 5 6 7 6 6 8 7 7 7 7 7 6 7 7 8 8 7 8 9 11 9
21 24 24 21 19 15 12 14 11 14 12 13 11 10 6 5 5 3 4 4 5 8 12 8 6 8 5 7 6 6 7 8 6 6 6 5 5 6 5 6 4 6 6 6 7 7 7 9 9
22 25 24 19 18 18 11 17 12 18 15 16 13 7 6 6 6 5 5 7 8 9 9 10 8 5 5 7 6 7 7 7 6 4 4 3 5 6 8 10 7 6 6 6 5 5 6 7 6
27 27 23 22 20 20 19 18 19 20 18 15 13 4 5 7 8 8 8 7 5 4 4 5 11 9 5 7 8 7 6 6 7 5 4 5 7 9 10 8 7 6 7 4 4 6 6 6 6
28 26 25 24 23 23 24 23 22 23 15 15 14 8 9 10 10 8 6 5 4 3 2 1 4 9 11 7 8 7 7 6 6 6 5 5 8 9 10 10 9 10 8 8 8 10 12 11 11
25 29 24 24 26 25 26 27 23 25 24 16 17 17 12 11 10 10 9 8 7 6 5 4 3 4 7 10 10 10 8 9 7 10 9 7 9 11 11 11 11 11 11 12 12 14 15 14 13
27 30 29 29 26 26 25 34 32 27 21 21 18 20 16 14 13 11 11 13 10 10 9 7 5 4 5 7 11 14 16 12 12 10 10 11 10 11 14 13 13 13 12 12 13 15 15 15 17
29 31 36 28 24 25 25 36 30 25 27 24 24 22 19 17 17 17 16 12 12 13 12 12 11 10 9 10 11 14 17 20 18 14 13 13 14 13 13 15 15 15 14 14 14 14 15 15 15
29 36 36 31 24 27 27 33 33 24 26 28 28 30 26 20 17 17 18 19 19 16 15 14 13 14 15 15 16 15 15 17 20 21 17 16 15 14 14 15 16 15 15 15 16 16 18 19 20
34 34 33 33 28 30 34 37 36 26 28 30 31 32 31 28 26 25 24 23 22 24 23 22 19 16 16 17 18 18 17 16 17 19 22 19 16 16 16 17 17 18 17 18 19 20 21 22 23
29 31 32 28 27 30 35 38 39 37 38 37 36 36 36 36 35 31 28 26 25 22 21 23 24 22 19 18 18 19 21 22 19 18 19 22 22 18 17 18 19 19 20 21 22 24 25 25 26
31 34 32 28 27 31 36 42 41 39 38 37 37 36 36 36 34 35 33 30 25 25 25 25 24 23 22 22 21 21 21 23 23 21 22 21 23 25 20 19 21 22 23 23 23 24 29 28 25
31 33 31 32 28 32 37 43 41 37 35 36 36 35 34 35 35 33 31 30 27 27 29 30 28 27 25 23 23 23 24 26 25 24 23 20 19 21 23 23 21 22 23 25 25 25 26 31 29
35 29 31 32 33 38 29 47 38 33 33 30 31 30 30 28 27 27 28 29 29 29 26 27 25 25 24 22 21 22 24 26 26 26 25 21 17 17 17 19 21 23 25 26 27 26 26 27 30
30 24 27 31 35 40 39 42 41 31 33 32 29 26 23 24 27 28 27 26 26 27 26 25 24 23 22 22 21 21 22 22 22 21 18 19 19 18 19 21 22 24 24 25 26 26 25 25 27
23 24 25 29 32 46 39 39 41 36 33 29 26 24 22 22 23 22 22 20 21 21 21 20 19 19 21 20 21 21 21 22 23 21 21 21 21 20 20 21 24 25 26 26 25 24 24 24 25
24 25 36 40 41 48 33 36 38 30 25 24 22 21 21 21 19 18 18 18 18 19 19 18 17 17 18 17 16 17 18 20 21 21 21 20 21 21 23 23 24 25 26 27 27 26 26 26 28
28 26 32 41 41 40 32 41 37 29 26 22 22 23 25 24 18 17 17 17 17 17 17 17 16 16 16 15 16 16 17 17 17 18 19 19 19 21 23 25 26 27 28 29 29 29 29 29 29
29 35 28 34 34 40 36 36 36 31 28 25 23 23 23 21 19 18 17 17 17 17 17 17 16 16 16 16 15 15 15 15 17 17 17 18 19 21 23 24 26 27 28 29 29 30 31 32 32
26 23 31 31 39 44 39 37 36 25 22 20 18 17 19 19 18 17 17 18 18 18 18 18 17 17 17 16 16 16 16 15 16 16 18 19 21 22 24 25 26 27 28 29 31 32 32 34 34
29 30 28 28 31 37 39 32 25 19 16 15 16 18 19 18 19 18 18 19 20 20 20 20 19 18 17 17 16 16 16 16 17 18 19 20 21 23 24 26 28 29 30 31 32 33 33 34 35
30 31 29 33 34 34 35 35 21 18 14 17 17 17 19 21 22 22 22 23 24 24 22 21 20 18 17 16 16 16 16 17 18 19 20 21 23 24 26 27 28 29 30 31 32 33 34 34 35
Wind_Direction
284 268 238 237 238 223 234 218 228 212 202 220 224 218 231 236 217 190 192 188 185 200 211 208 207 206 217 220 38 25 14 10 31 54 66 70 72 70 66 65 60 63 64 61 55 52 51 51 52
275 261 242 246 247 239 260 247 218 237 246 239 227 214 220 230 246 218 205 209 189 213 218 223 221 218 233 252 347 22 16 18 23 45 56 55 56 59 63 59 54 49 50 48 52 49 49 49 49
274 250 260 262 259 272 272 252 293 267 238 227 233 247 243 246 266 209 220 103 207 223 224 258 241 241 244 256 275 297 12 38 30 35 43 47 51 53 56 53 53 46 46 36 40 41 41 42 42
276 268 260 260 281 275 307 303 312 273 249 246 241 270 268 260 251 246 110 97 198 243 318 55 346 319 317 317 327 331 44 49 63 67 66 69 63 62 57 54 56 53 50 44 43 44 48 48 47
275 265 262 266 279 275 286 315 314 268 266 270 242 275 279 264 292 80 100 86 268 259 21 7 356 319 299 316 338 340 335 57 64 70 69 64 57 57 54 57 62 49 48 46 45 44 46 49 49
271 272 261 263 278 274 278 281 311 302 300 282 266 316 284 310 316 68 94 82 78 14 34 34 49 51 24 1 2 3 343 33 57 52 53 59 60 58 58 56 53 45 47 49 46 44 41 41 49
264 264 257 271 276 277 273 268 275 303 301 299 274 288 301 317 3 38 341 90 79 316 338 20 15 37 34 36 33 33 7 357 36 44 53 56 55 54 50 51 50 43 41 46 45 43 38 38 47
273 271 262 264 274 272 285 279 274 276 295 295 280 294 293 9 11 350 321 332 47 50 342 350 358 338 345 360 9 4 359 6 18 34 41 42 44 37 34 36 38 43 44 43 46 42 33 39 44
275 266 262 264 267 272 283 278 278 281 295 294 296 310 3 40 351 311 297 314 310 309 356 320 316 343 343 343 344 343 343 354 1 5 15 18 30 40 40 41 44 48 44 37 42 38 27 21 29
266 262 263 284 273 276 275 272 279 282 288 290 302 313 356 6 356 339 305 294 297 285 285 306 309 309 326 324 335 336 332 333 338 350 358 9 18 24 34 31 57 40 29 32 29 24 21 15 13
267 261 273 281 283 284 281 271 279 275 281 282 288 308 320 325 324 325 315 294 296 294 287 292 302 311 314 318 331 331 328 333 336 349 351 6 4 359 354 351 10 8 7 9 15 19 17 14 22
263 264 271 275 278 276 277 275 275 274 283 293 299 291 308 310 306 304 302 298 306 308 301 292 294 301 308 312 315 325 330 330 331 334 338 337 337 338 340 347 353 355 1 9 9 3 3 4 6
265 267 269 271 276 272 273 270 271 271 287 295 297 302 297 296 299 301 312 313 314 313 311 280 290 296 300 306 310 314 318 322 327 329 326 325 325 327 330 333 338 339 345 350 347 344 341 343 342
273 265 273 273 272 274 270 268 273 274 276 288 289 287 293 294 294 295 294 297 299 304 303 302 291 296 295 298 304 310 311 313 313 316 317 314 316 318 321 325 327 329 331 333 333 331 331 332 334
269 267 269 269 271 273 276 264 266 272 282 281 287 288 292 292 291 290 291 291 294 294 296 291 287 290 296 298 296 298 304 306 307 308 310 310 308 309 315 317 319 321 324 325 326 327 328 328 329
266 266 262 271 267 274 274 266 273 274 274 280 283 284 286 289 291 290 291 291 290 290 287 287 289 288 287 294 297 299 295 299 304 303 305 302 302 303 304 307 311 315 319 321 321 322 323 323 323
264 261 261 267 271 274 270 272 271 279 279 275 280 280 283 287 288 289 290 290 289 289 287 284 282 283 287 289 294 296 298 297 295 302 299 300 299 298 299 303 306 309 313 315 317 317 318 318 319
261 262 265 262 269 272 271 270 271 281 280 278 279 281 282 285 287 290 289 289 287 287 287 289 288 282 281 288 292 294 295 296 297 295 298 300 297 297 297 300 301 305 308 311 313 313 315 316 318
269 267 265 271 275 276 273 273 272 275 276 278 280 280 280 280 283 287 289 289 287 286 285 286 287 288 287 284 287 288 289 292 295 297 298 296 300 296 296 299 301 302 303 306 308 311 312 312 314
267 265 266 274 279 278 277 274 275 277 277 278 280 281 282 285 285 285 287 287 284 286 287 286 286 285 284 284 286 288 291 293 295 294 297 298 294 298 295 296 300 303 304 306 306 307 308 311 313
263 265 267 270 278 281 280 277 276 279 280 280 281 283 285 285 287 290 291 291 292 290 288 286 285 284 282 281 285 287 290 293 295 295 295 296 298 296 293 298 300 303 304 306 307 307 306 307 311
263 269 271 274 278 273 284 272 278 284 284 286 287 288 288 290 292 294 295 293 293 295 297 296 292 289 289 287 283 285 287 288 293 294 298 299 296 299 303 299 301 305 306 306 307 308 307 307 307
267 276 273 276 276 277 275 276 277 285 283 287 289 292 294 298 298 297 297 297 298 299 299 299 297 294 293 292 291 292 292 294 299 302 302 306 307 306 306 306 306 307 308 309 309 310 310 309 309
270 273 279 279 278 270 273 273 277 279 283 289 295 296 300 303 306 308 309 308 306 310 310 310 304 303 299 296 294 292 295 295 296 299 301 303 305 309 311 311 310 310 312 313 313 313 313 313 312
266 264 269 270 268 269 281 272 274 286 293 295 298 301 306 310 313 315 315 316 318 316 317 318 315 311 309 308 308 305 304 304 304 305 306 306 309 312 314 317 318 318 317 316 316 316 315 315 313
257 261 268 268 268 273 278 272 280 285 293 291 294 301 302 306 310 315 320 322 322 324 324 324 324 320 317 318 316 315 316 315 315 315 313 314 316 316 318 318 319 319 318 318 318 318 317 317 317
261 259 273 275 278 275 275 279 283 284 287 289 291 299 306 311 309 311 315 319 321 321 321 321 319 319 318 319 324 325 325 323 320 323 324 322 324 323 322 322 321 321 322 323 323 321 319 319 318
269 266 265 270 270 270 275 278 279 285 286 290 290 302 313 316 315 317 317 316 318 316 315 314 315 315 317 318 319 322 325 327 328 328 325 325 325 325 325 325 325 325 325 325 324 322 322 320 320
262 262 268 272 270 273 275 279 295 289 289 288 290 303 311 316 318 318 319 318 316 314 310 308 308 310 312 316 319 322 324 326 328 327 326 325 326 326 326 326 324 323 323 325 323 323 324 323 322
264 264 260 267 270 270 275 274 298 298 298 298 301 306 310 312 317 317 316 314 312 310 308 306 306 307 309 313 316 319 322 324 325 325 326 327 326 328 326 326 325 325 326 326 326 325 325 324 323